Location: Broletto
(44.6000°N, 10.5833°E)
Time: 07:42:14
(UTC+00:00)

Cosmos 1300 - Pass Details

Date: 18 April 2021
Orbit: 510 x 513 km, 82.5° (Epoch: 05 May)

Event Time Altitude Azimuth Distance (km) Brightness Sun altitude
Rises 18:39:20 0° 200° (SSW) 2,610 6.3 -6.4°
Reaches altitude 10° 18:41:30 10° 206° (SSW) 1,729 5.4 -6.7°
Maximum altitude 18:45:11 48° 282° (WNW) 674 3.8 -7.3°
Drops below altitude 10° 18:48:54 10° 358° (N) 1,742 5.7 -7.9°
Sets 18:51:05 0° 4° (N) 2,633 6.6 -8.3°
